Regional Weather Roundup
Issued by NWS

Home | Current Version | Previous Version | Text Only | Print | Product List | Glossary On
Versions: 1 2 3 4 5 6 7 8 9 10 11 12 13 14 15 16 17 18 19 20 21 22 23 24 25 26 27 28 29 30 31 32 33 34 35 36 37 38 39 40 41 42 43 44 45 46 47 48 49 50
000
ASUS43 KTOP 270559
RWRKS

WEATHER ROUNDUP FOR KANSAS
NATIONAL WEATHER SERVICE GOODLAND KS
100 AM CDT FRI MAR 27 2015

NOTE:  "FAIR" INDICATES FEW OR NO CLOUDS BELOW 12,000 FEET WITH NO
SIGNIFICANT WEATHER AND/OR OBSTRUCTIONS TO VISIBILITY.

KSZ001>006-013>018-027>032-041>047-270700-
NORTHWEST KANSAS

CITY           SKY/WX    TMP DP  RH WIND       PRES   REMARKS
GOODLAND       CLOUDY    41  31  67 E9        30.19R
6HR MIN TEMP:  41; 6HR MAX TEMP:  54;

HAYS           CLOUDY    37  27  65 NE21G26   30.19R WCI  27
HILL CITY      CLOUDY    37  31  78 NE9       30.23R
6HR MIN TEMP:  37; 6HR MAX TEMP:  60;

RUSSELL        CLOUDY    36  33  89 NE21G28   30.16S WCI  25
6HR MIN TEMP:  36; 6HR MAX TEMP:  62;

$$

KSZ061>065-074>080-084>089-270700-
SOUTHWEST KANSAS

CITY           SKY/WX    TMP DP  RH WIND       PRES   REMARKS
DODGE CITY     CLOUDY    44  28  53 N12       30.16R
6HR MIN TEMP:  44; 6HR MAX TEMP:  62;

ELKHART          N/A     44  26  49 W3          N/A
GARDEN CITY    CLOUDY    47  31  53 NE17      30.16R
6HR MIN TEMP:  45; 6HR MAX TEMP:  61;

GREAT BEND     PTCLDY    39  30  70 N22       30.15R WCI  29
LIBERAL        FAIR      43  28  56 NW9       30.17S
$$

KSZ066>073-081>083-090>101-270700-
SOUTHEAST KANSAS

CITY           SKY/WX    TMP DP  RH WIND       PRES   REMARKS
CHANUTE        CLOUDY    43  38  82 NE8       30.10S
6HR MIN TEMP:  43; 6HR MAX TEMP:  52; 6HR PCP: TRACE;

COFFEYVILLE    CLOUDY    44  36  73 NE8       30.10R
6HR MIN TEMP:  43; 6HR MAX TEMP:  55;

HUTCHINSON     PTCLDY    44  36  73 N17G24    30.11R
6HR MIN TEMP:  44; 6HR MAX TEMP:  58;

MEDICINE LODGE   N/A     50  32  50 W9        30.08S
NEWTON         CLEAR     43  34  70 NE15G22   30.12R
PARSONS        CLOUDY    45  37  73 VRB5      30.12R
6HR MIN TEMP:  44; 6HR MAX TEMP:  55;

WICHITA INTL   MOCLDY    48  33  56 NE13      30.05R
6HR MIN TEMP:  43; 6HR MAX TEMP:  58;

WICHITA JABRA  CLEAR     43  34  70 NE12      30.06R
6HR MIN TEMP:  43; 6HR MAX TEMP:  56;

WINFIELD       PTCLDY    40  32  73 W7        30.05F
6HR MIN TEMP:  40; 6HR MAX TEMP:  55;

$$

KSZ007>012-019>026-033>040-048>060-102>105-270700-
NORTHEAST KANSAS

CITY           SKY/WX    TMP DP  RH WIND       PRES   REMARKS
CONCORDIA      CLOUDY    35  33  92 NE13      30.21R WCI  26
6HR MIN TEMP:  35; 6HR MAX TEMP:  49; 6HR PCP: TRACE;

EMPORIA        CLOUDY    39  35  86 NE21      30.13R WCI  29
6HR MIN TEMP:  39; 6HR MAX TEMP:  53; 6HR PCP:  0.08;

LAWRENCE       LGT RAIN  37  34  89 NE6       30.17R
6HR MIN TEMP:  37; 6HR MAX TEMP:  50; 6HR PCP:  0.05;

MANHATTAN      CLOUDY    38  35  89 NE10      30.18S WCI  31
6HR MIN TEMP:  37; 6HR MAX TEMP:  53; 6HR PCP:  0.06;

OLATHE IND     LGT RAIN  37  35  92 N9        30.16S
6HR MIN TEMP:  37; 6HR MAX TEMP:  48; 6HR PCP:  0.05;

OLATHE EXE     LGT RAIN  38  36  92 N7        30.14S
6HR MIN TEMP:  38; 6HR MAX TEMP:  49; 6HR PCP:  0.07;

SALINA         CLOUDY    39  33  79 NE10G22   30.18R WCI  32
6HR MIN TEMP:  39; 6HR MAX TEMP:  58; 6HR PCP: TRACE;

TOPEKA BILLARD LGT RAIN  37  35  92 N7        30.18S
6HR MIN TEMP:  37; 6HR MAX TEMP:  51; 6HR PCP:  0.07;

TOPEKA FORBES  CLOUDY    38  36  92 NE5       30.16S
6HR MIN TEMP:  38; 6HR MAX TEMP:  52; 6HR PCP:  0.06;

$$



USA.gov is the U.S. government's official web portal to all federal, state and local government web resources and services.